Helicity
-4 38 38 19 38 38 -3 44 23 84 72 176 152 248 85 87 95 176 49 257 320 233 198 207 192 166 156 128 88 38 32 33 31 31 35 39 50 60 67 71 71 67 55 54 50 46 37 33 29
-3 0 15 6 35 -1 4 75 79 174 165 150 120 100 152 63 120 96 80 190 192 191 200 208 204 191 167 145 121 110 90 69 40 32 52 91 95 101 103 100 92 89 88 93 88 80 69 63 51
10 8 -1 28 23 22 -52 66 116 85 64 66 112 185 267 130 82 116 71 99 143 189 205 205 195 187 170 152 148 136 130 133 134 120 110 117 124 124 112 106 99 88 87 82 70 65 68 64 68
9 29 16 23 -10 -51 -2 76 78 65 57 66 105 111 132 206 105 67 41 128 167 234 209 218 207 199 172 163 159 155 142 144 143 134 125 124 117 107 105 107 85 79 74 71 67 61 60 66 63
54 -20 6 7 16 2 92 155 160 20 47 79 66 193 113 138 80 64 140 186 233 244 213 218 217 194 174 178 170 169 161 153 145 134 129 129 110 100 107 104 85 75 78 73 69 61 63 61 58
-20 26 -2 4 14 47 83 116 97 34 89 132 119 136 98 93 86 133 142 221 198 188 190 190 187 177 159 156 167 176 173 159 151 138 131 119 113 109 110 100 84 75 74 73 64 52 50 48 42
14 -32 -11 -21 -23 33 102 151 30 -9 40 78 27 131 70 72 71 115 133 151 133 137 145 124 135 147 138 145 160 171 166 155 133 104 92 82 83 82 87 83 82 76 66 61 56 44 33 31 26
-1 -35 -24 -10 -11 54 119 106 107 28 51 123 105 72 63 115 84 87 94 98 124 95 97 92 73 60 76 149 154 145 121 108 92 70 61 53 44 61 82 83 73 67 62 63 54 50 41 34 18
-10 -10 -10 16 22 123 107 106 93 50 39 62 167 229 223 166 108 103 88 105 108 90 77 73 68 100 101 110 114 100 91 84 71 70 73 66 79 84 96 80 66 61 53 37 41 45 56 101 71
11 0 -34 63 88 77 53 48 9 62 20 60 159 198 210 117 76 92 83 101 82 96 98 85 81 84 47 97 60 78 71 96 120 135 132 109 103 100 86 84 63 57 52 40 49 23 56 69 79
0 -6 -60 40 70 127 185 23 10 15 -12 55 266 222 114 81 84 84 72 81 85 104 105 75 104 96 58 84 46 49 69 72 116 171 156 143 138 146 120 120 96 96 100 95 91 64 67 61 57
39 0 -37 34 28 28 12 -6 12 24 23 87 77 175 96 56 53 59 66 101 92 96 98 135 137 106 146 93 117 130 110 112 131 181 220 185 165 173 174 155 149 136 108 109 107 79 79 74 60
7 8 -8 48 14 40 15 11 19 14 17 106 74 87 94 86 66 64 82 125 141 174 205 165 163 174 155 200 198 155 158 186 154 169 219 236 198 194 168 152 131 120 115 113 110 91 91 80 75
15 68 23 10 -4 13 22 11 20 15 29 75 114 104 86 76 73 82 126 281 279 283 226 224 172 167 158 203 188 179 161 158 180 176 197 219 176 188 154 152 139 128 108 111 102 104 98 87 78
31 17 18 2 19 29 28 20 7 34 78 86 110 87 107 100 91 115 251 328 289 269 237 194 190 166 207 181 156 178 155 148 124 133 173 190 196 179 166 142 141 131 113 119 113 102 95 100 104
15 20 19 -11 31 102 130 24 -10 111 45 102 49 105 132 170 123 227 334 337 289 283 269 215 191 194 148 179 158 156 179 172 150 134 144 165 183 197 175 163 159 147 126 114 117 106 110 111 108
6 21 -2 13 66 87 78 51 -8 48 47 65 102 80 145 199 163 341 375 303 302 356 252 241 233 177 213 211 258 207 196 184 166 153 137 159 188 195 156 154 139 125 125 100 129 142 126 136 104
60 94 73 77 24 55 37 50 35 8 24 55 132 78 135 228 190 302 301 282 270 325 262 286 240 235 189 218 152 168 160 154 163 156 163 188 166 170 154 103 129 120 128 124 139 138 131 113 99
185 139 68 63 30 73 102 102 75 62 49 56 35 177 135 198 219 330 336 298 350 384 311 239 227 174 185 130 130 126 153 158 156 152 150 156 160 150 186 132 131 152 105 130 136 126 143 116 84
96 120 83 49 49 118 134 105 100 88 47 -11 16 85 171 184 268 459 516 382 361 373 266 243 214 166 90 85 129 195 180 195 178 149 158 140 138 155 134 145 116 141 113 108 122 141 140 119 63
55 63 70 91 142 125 75 67 56 30 47 53 25 49 149 199 353 579 628 462 358 308 278 216 173 112 130 291 301 306 243 149 110 70 122 116 117 120 128 127 129 117 124 108 100 136 133 170 153
122 83 145 142 91 139 100 146 121 64 28 38 102 152 161 198 282 517 549 506 330 296 236 191 194 146 268 221 208 160 112 115 171 184 104 108 117 130 125 130 124 135 111 139 130 142 152 191 161
136 116 97 104 109 112 119 138 78 19 8 197 125 202 229 166 228 362 414 331 222 208 211 199 209 184 251 168 151 156 288 207 208 165 126 106 108 117 121 116 132 134 124 115 131 125 129 137 144
110 91 91 83 83 130 61 12 83 17 138 131 188 268 240 178 208 310 315 256 179 164 231 229 232 216 209 208 176 118 195 166 157 93 73 93 73 84 106 113 125 126 113 102 86 83 112 106 127
25 89 131 150 142 131 35 53 54 68 105 142 165 183 181 165 210 271 277 191 144 211 278 207 184 272 226 210 201 219 204 170 145 96 127 97 87 114 128 139 125 101 97 92 89 81 81 78 60
210 169 195 176 178 157 147 209 139 38 58 154 196 255 172 161 189 172 205 157 128 285 253 187 165 293 243 211 189 157 140 143 140 154 143 162 169 157 139 127 113 105 107 98 75 61 38 21 23
135 152 27 135 159 184 182 110 9 160 212 326 222 141 186 133 133 155 202 192 150 265 240 168 167 213 192 178 191 165 128 171 189 212 208 208 209 168 136 118 120 117 114 91 73 45 21 14 7
130 49 131 139 175 180 159 152 107 138 132 73 185 228 107 153 135 164 205 191 141 235 211 139 122 230 210 209 179 156 180 207 195 170 194 186 216 212 128 130 119 113 98 71 46 28 20 6 -5
82 56 44 85 107 188 172 183 80 -12 71 152 235 291 316 148 149 153 187 135 177 207 212 200 179 289 206 211 194 200 209 205 202 201 224 193 187 168 143 132 120 106 88 71 60 28 30 16 5
90 133 98 180 187 156 184 207 83 70 118 181 78 65 66 65 85 70 101 116 167 226 255 236 235 298 280 223 228 235 237 228 217 216 205 200 201 185 166 143 134 108 82 72 64 62 38 28 25
Wind_Speed
47 13 16 15 31 26 29 17 18 36 33 31 38 40 25 33 32 20 14 20 15 14 17 17 19 22 24 26 26 25 27 28 29 29 31 33 34 36 38 39 40 41 42 43 44 44 44 43 44
40 52 16 34 24 36 33 32 31 32 29 31 34 36 34 29 27 15 14 14 16 16 15 16 18 21 23 24 26 27 28 29 28 27 29 33 35 37 38 40 41 42 43 44 45 46 46 46 45
17 12 33 27 16 19 50 42 41 34 32 31 33 32 32 35 23 15 12 13 17 16 18 16 18 20 22 23 23 25 26 29 30 30 31 33 35 37 39 41 43 44 45 46 47 48 48 48 46
23 17 24 29 26 41 56 40 38 37 33 31 26 27 25 38 25 11 9 13 16 17 18 17 18 19 21 21 22 22 24 25 26 27 30 32 35 37 39 41 42 43 44 45 47 48 49 49 49
5 26 12 12 15 21 30 39 40 41 31 23 26 24 24 27 18 14 11 14 15 15 16 17 19 20 20 22 22 22 22 23 24 25 28 31 34 36 38 40 42 43 44 46 47 48 49 49 50
19 1 12 13 12 24 36 34 43 37 28 26 24 22 26 15 12 10 11 15 14 14 16 17 19 19 20 20 20 20 21 23 24 25 27 30 33 36 38 41 42 44 46 47 48 49 50 49 48
7 8 8 14 44 63 36 29 35 29 31 23 19 23 15 12 10 9 10 13 13 13 14 16 17 19 20 19 18 19 20 20 23 25 27 29 32 35 38 42 44 45 47 47 49 50 50 49 47
7 10 8 10 19 35 32 32 31 34 28 23 29 30 13 4 7 8 8 8 12 12 13 15 16 17 18 17 17 18 18 19 20 22 24 26 30 35 37 40 43 44 46 49 49 50 51 50 49
12 15 11 14 52 26 35 37 24 28 29 25 31 35 9 9 8 5 5 6 8 10 12 12 14 18 17 16 16 18 18 19 20 24 26 25 32 36 36 41 41 44 45 46 48 51 52 56 55
15 12 6 47 47 42 39 34 27 25 19 23 26 20 8 6 5 3 1 4 7 9 12 12 13 14 12 14 13 15 16 21 25 28 30 31 32 37 37 37 40 41 48 43 48 50 54 53 54
13 18 26 50 41 45 46 39 30 34 33 43 8 5 3 3 1 2 4 5 7 9 10 10 13 13 12 14 12 13 16 20 26 31 32 33 35 40 40 42 44 45 49 51 53 50 54 54 53
32 40 37 43 43 36 33 30 41 33 36 38 18 11 11 5 2 2 5 6 7 6 6 9 11 12 17 17 18 19 19 21 26 31 36 36 36 39 42 43 46 47 50 50 52 52 54 53 51
36 49 39 42 37 37 36 34 33 33 34 29 16 4 3 1 3 3 2 1 3 5 8 9 11 14 16 19 22 22 23 25 25 30 35 37 37 39 40 42 43 46 49 50 52 53 54 53 53
49 57 58 49 45 34 33 32 37 35 36 25 21 14 11 9 8 6 5 5 6 6 10 11 11 13 13 18 19 22 24 24 28 32 34 36 36 39 38 41 44 47 48 49 50 51 53 53 53
47 51 53 42 30 24 37 38 35 27 21 22 23 25 15 12 10 10 8 9 9 8 7 10 12 12 16 16 18 21 23 24 26 29 34 37 39 39 41 41 44 46 48 50 50 51 53 53 55
47 38 52 36 10 21 34 49 48 45 13 19 30 22 19 14 12 9 8 8 8 7 8 7 9 11 12 15 18 20 24 26 27 29 34 38 40 42 41 42 45 46 46 49 51 52 53 54 55
44 50 48 39 20 26 28 45 45 38 35 39 41 35 21 17 14 10 9 8 8 6 6 9 8 8 13 16 21 23 25 26 29 31 34 38 42 43 40 43 45 46 47 49 53 54 55 56 57
59 57 53 51 39 30 45 44 47 52 56 49 39 37 26 22 18 14 11 10 10 8 7 8 9 10 12 16 17 20 22 25 29 33 36 40 41 43 43 40 44 45 48 51 54 54 55 53 59
53 52 54 53 51 61 66 69 62 63 69 60 55 35 35 25 19 15 13 12 13 12 12 13 11 11 13 15 17 19 22 25 29 32 35 38 41 42 45 44 45 47 46 51 54 54 56 53 61
44 46 48 49 51 58 67 74 73 66 61 58 57 41 32 23 17 15 15 17 18 18 17 15 15 13 14 16 19 20 22 27 28 32 36 37 39 42 42 44 44 47 46 50 53 56 56 51 57
42 45 49 52 63 64 71 68 69 58 53 45 62 36 26 20 18 13 11 16 20 21 19 18 16 15 18 17 21 23 26 27 29 28 34 37 38 39 41 41 43 44 47 49 52 55 54 55 56
50 46 54 55 60 63 57 85 66 72 65 53 46 30 24 12 8 10 10 13 19 22 20 18 16 17 18 18 18 18 22 25 26 29 31 35 37 38 39 40 41 44 45 48 51 52 53 52 52
54 58 57 59 65 69 59 62 63 74 73 52 46 16 18 11 9 14 12 14 16 17 19 20 16 17 19 21 19 20 24 23 26 29 29 31 35 37 39 40 42 43 45 45 46 48 49 48 48
56 58 59 62 64 64 60 59 60 69 51 40 33 27 26 23 10 9 14 13 13 12 14 19 19 19 19 21 20 20 19 19 22 23 25 29 31 35 36 37 40 42 42 42 42 43 46 46 47
52 50 69 67 57 65 62 71 69 75 46 44 36 33 27 26 19 14 14 12 9 9 9 14 17 19 20 20 20 22 20 21 22 24 25 27 29 33 36 37 38 37 38 38 39 41 43 44 43
60 59 62 79 78 78 79 79 83 84 73 44 35 27 31 27 17 11 12 7 8 8 12 13 16 19 21 21 19 18 18 20 21 24 25 28 30 31 32 33 32 34 34 37 37 38 38 39 43
59 59 63 78 80 85 79 81 77 54 63 29 31 30 31 27 24 19 11 10 10 7 10 11 13 18 20 18 15 15 17 18 21 24 25 27 28 28 28 27 29 31 32 34 34 35 35 38 42
60 68 76 69 81 84 76 84 82 70 62 46 41 41 34 32 27 28 23 19 11 7 8 9 14 17 14 11 12 13 16 19 20 21 23 24 26 26 23 24 26 28 29 29 29 30 33 36 39
66 74 69 65 70 82 84 75 68 61 55 39 38 46 46 37 38 35 30 21 14 12 11 15 21 16 11 10 12 14 18 19 19 21 23 23 21 20 20 22 23 25 26 26 25 26 29 33 35
76 75 70 79 85 84 84 78 60 58 51 41 47 44 40 41 38 35 31 27 21 17 15 21 19 14 11 11 15 16 17 18 21 22 19 18 18 18 19 19 21 22 22 22 21 23 26 30 33
Wind_Direction
325 34 37 18 338 336 330 326 272 320 325 347 324 317 336 323 311 310 2 344 22 27 47 42 36 37 37 36 37 39 41 38 30 25 22 18 16 13 12 6 0 355 349 347 342 340 342 344 339
340 298 6 335 332 326 326 314 342 348 352 352 341 317 317 320 330 352 0 12 23 24 35 32 27 26 29 25 24 24 29 29 27 26 18 12 11 12 10 5 1 355 350 346 343 340 337 337 339
26 49 335 332 320 317 307 327 314 351 351 343 338 330 325 317 329 334 43 45 25 19 32 33 31 30 26 27 21 15 15 17 18 20 16 14 10 7 1 357 354 351 347 344 341 336 334 334 337
7 3 345 326 322 314 308 336 337 334 336 336 353 334 339 322 323 345 57 38 30 23 34 28 24 21 17 16 17 11 10 11 10 11 12 11 3 360 356 354 353 351 350 347 343 339 336 334 330
75 352 335 296 309 314 331 325 334 327 331 341 337 339 342 343 30 53 40 29 29 32 26 23 25 25 22 23 19 11 8 4 3 4 4 3 4 3 1 359 355 351 351 348 344 340 338 333 330
5 274 335 334 330 341 333 340 327 323 342 346 339 340 335 9 20 23 32 14 40 35 22 18 20 19 20 20 16 9 5 360 359 358 360 2 2 1 359 356 353 350 348 347 344 341 339 337 335
28 9 265 277 318 305 333 349 337 330 329 327 341 341 343 356 14 16 10 18 31 30 22 18 12 14 16 14 8 6 3 2 359 359 3 7 6 2 359 356 352 350 349 347 344 341 340 341 340
17 356 276 319 328 336 342 349 343 332 332 347 327 331 334 74 41 18 16 19 12 24 28 19 26 21 11 7 11 15 16 13 8 9 12 15 16 12 2 358 356 355 353 350 347 344 341 340 340
26 355 346 341 336 354 352 343 349 336 325 341 342 328 38 92 67 24 13 6 1 3 7 21 27 21 21 24 27 20 22 23 20 8 0 6 353 354 1 357 357 354 353 352 351 346 342 335 335
10 355 312 341 325 327 339 340 342 351 328 313 332 354 46 96 90 99 7 323 330 337 345 356 11 22 31 15 29 19 16 1 351 347 348 349 351 348 348 354 354 353 349 351 346 344 341 342 338
343 332 330 333 333 324 323 333 339 329 330 321 300 77 49 139 209 285 291 305 316 330 342 356 3 9 11 8 28 26 12 5 353 343 346 346 346 342 346 346 348 346 345 342 340 344 339 338 339
337 330 332 327 333 333 333 334 325 331 326 337 14 86 82 109 162 279 293 314 319 334 4 13 6 2 353 358 356 354 357 357 350 343 338 341 343 343 342 343 344 344 342 343 340 341 338 339 340
331 323 326 333 329 326 326 324 324 319 324 335 5 20 350 262 216 219 221 35 67 354 4 2 359 347 343 346 344 348 351 350 355 351 343 340 344 344 346 346 347 346 344 343 341 341 339 338 338
326 317 312 319 319 323 323 323 321 313 309 323 332 324 312 296 280 278 273 314 324 333 332 344 348 345 346 345 347 345 347 351 350 348 347 344 349 344 348 346 346 345 346 343 343 342 340 338 338
331 325 320 319 316 318 326 323 317 310 310 317 322 318 308 298 276 266 286 302 310 325 342 333 338 343 341 343 346 347 348 351 354 353 349 347 346 347 346 347 344 343 343 342 341 341 340 339 337
322 322 318 330 307 332 328 320 324 344 305 317 318 312 308 302 280 276 289 292 295 302 314 325 340 343 349 348 347 348 344 347 349 352 350 349 347 344 346 345 344 342 343 343 341 341 340 338 337
321 311 318 332 352 337 331 321 314 335 327 316 314 312 298 303 291 281 286 286 290 295 304 311 332 337 341 342 342 343 342 344 346 347 347 347 346 344 347 345 344 342 343 344 340 337 337 335 335
316 317 317 316 328 332 319 319 314 310 314 312 305 306 293 288 283 284 288 293 296 304 310 319 321 327 331 336 341 342 342 344 345 345 345 344 346 345 343 348 343 343 342 341 340 337 336 337 334
322 317 313 312 313 310 309 309 311 310 306 304 304 293 296 282 279 277 290 303 309 307 304 298 302 311 321 322 327 328 330 335 339 344 346 346 345 345 341 342 342 342 344 341 339 337 334 338 336
321 317 314 314 316 317 312 307 308 308 304 304 302 294 283 279 266 270 283 297 299 298 296 290 291 295 303 312 321 327 331 333 337 340 342 346 345 344 343 340 343 341 342 343 340 339 337 338 343
316 313 315 315 315 312 311 304 309 313 314 310 318 281 278 259 250 255 270 289 296 295 290 285 283 285 297 317 325 329 330 328 329 335 340 343 345 346 345 346 345 345 344 343 342 340 342 336 341
313 318 318 317 314 312 320 310 310 312 310 304 299 291 289 283 230 252 257 286 287 289 286 282 283 284 301 305 309 314 319 320 330 335 341 342 346 346 348 348 349 347 348 345 345 345 345 344 343
312 315 314 313 310 312 312 310 305 319 314 326 327 303 318 321 262 269 266 294 293 284 284 286 284 286 298 298 304 307 321 324 328 333 338 343 344 347 346 348 349 349 349 351 352 352 352 352 352
312 312 309 305 304 299 308 307 307 316 318 335 339 340 328 318 314 274 287 295 293 280 291 292 288 290 297 296 306 311 321 327 333 336 338 342 346 348 350 351 352 350 352 355 357 360 358 358 354
307 307 309 308 303 298 309 308 313 316 330 318 316 310 311 311 301 293 295 299 289 276 298 296 286 292 297 296 304 313 316 322 328 330 336 341 346 347 347 350 349 355 358 2 2 3 4 7 7
310 308 304 305 304 304 305 303 304 309 317 308 311 322 319 319 317 298 301 285 277 273 291 298 289 296 297 296 298 306 314 321 329 334 338 342 343 347 352 353 359 1 3 4 5 10 14 17 20
307 305 306 303 300 300 301 303 308 334 337 340 330 328 326 323 319 316 304 303 295 278 287 295 291 296 295 295 298 304 313 323 328 334 341 341 347 351 355 3 3 5 7 8 8 16 20 24 30
301 304 302 300 297 295 300 302 307 319 326 321 321 327 321 319 318 312 314 308 298 288 291 283 287 290 300 305 302 306 314 321 327 333 337 341 349 355 359 1 6 10 9 12 15 18 27 30 31
301 301 299 297 296 299 299 299 304 328 325 336 336 328 329 317 311 310 314 311 302 292 283 282 286 288 282 290 296 303 308 316 323 326 331 339 350 359 360 0 9 14 18 19 17 25 24 27 27
302 299 299 296 296 294 298 298 313 323 323 316 322 326 319 316 312 308 300 300 294 282 276 277 277 273 264 281 288 297 307 311 313 317 331 345 349 353 352 358 2 16 19 11 14 14 18 23 20